User: anonymous   Login
Location: K�ln
(52.3670°N, 9.7170°E)
Time: 11:08:22
(UTC+02:00)
Language:

ISS - Orbit

View from above orbital plane
View from above orbital plane
View from above satellite
View from above satellite

Ground track
Ground track

The orbit data is extracted from the following two-line orbital elements,

1 25544U 98067A   20158.50711083  .00016717  00000-0  10270-3 0  9019
2 25544  51.6449  41.3400 0002201  23.5980 336.5271 15.49425941 30357
Epoch (UTC): 06 June 2020 12:10:14
Eccentricity: 0.0002201
inclination: 51.6449°
perigee height: 417 km
apogee height: 420 km
right ascension of ascending node: 41.3400°
argument of perigee: 23.5980°
revolutions per day: 15.49425941
mean anomaly at epoch: 336.5271°
orbit number at epoch: 3035

The dashed part of the orbit path shows where the satellite is in the earth's shadow,  

DLR